Showing default

ZHUHAI-1 03D, 44538

Orbit data source: Space-Track

ZHUHAI-1 03D, 44538 is a payload satellite owned by Zhuhai Orbita (CN) in SSO that was launched on Thu, 19 Sep 2019 UTC via a CHANG ZHENG 11 launch vehicle from the Jiuquan Satellite Launch Center, China (JSC). Payload-class satellites include a variety of spacecraft equipped with specific instruments for various scientific and technological missions. These include communications satellites like Starlink; space stations such as the ISS; scientific satellites like the Hubble; Earth observation satellites from companies like Planet Labs, Umbra, and HawkEye 360; GPS; miniature CubeSats for education and research; and military/defense satellites.

Loading next visibility...
Identifier
44538, 2019-060E
Orbit
SSO
Country
Flag of CNCN / PRC
Related business
Manufacturer
Harbin
Mission
Operational Commercial Imaging
Bus & Motor
OHS-1, Unknown motor
Mass
69 kg wet, 69 kg dry
Launch date (UTC)
2019-09-19 (6 years ago)
Launch vehicle
CHANG ZHENG 11
Launch site
Jiuquan Satellite Launch Center, China (JSC)
Object type
Payload
Rocket body
Debris
Shape & HBR
Box, Unknown HBR
Radar Cross Section
0.280 m², Medium (>0.1 m² and < 1m²)

Expand to show TLE details & history
Last TLE update: 7 hours ago

TLE from 7 hours ago
0 ZHUHAI-1 03D
1 44538U 19060E   25260.96965733  .00017153  00000-0  53658-3 0  9990
2 44538  97.5123  37.5671 0011307 201.9989 158.0769 15.33142303334148
Epoch: 2025-09-17T23:16Z
TLE epoch observation values (Epoch: 2025-09-17T23:16:18.393Z)
Latitude
-0.00002°
Longitude
51.35249°
Altitude
476.731 km
Speed
7.623 km/s
True Right ascension
02h 30m 16s
True Declination
0° 00' 00"
Sunlit
Object was in full shadow at epoch
Visualization orbit readout
Latitude
Unknown
Longitude
Unknown
Altitude
Unknown
Speed
Unknown
Apparent Right ascension
Unknown
Apparent Declination
Unknown
Sunlit
N/A
Visualization observer readout
Local Sidereal Time
22:53:21
Azimuth
Unknown
Elevation
Unknown
Doppler factor
Unknown
Orbital elements
Apogee altitude
471.133 km
Perigee altitude
455.661 km
Semi-major axis
6,841.534 km
Eccentricity
0.00113
Inclination
97.5123°
RAAN
37.5671°
Arg. of periapsis
201.9989°
True anomaly
158.12521°
Mean anomaly
158.0769°
Eccentric anomaly
158.10106°
Mean motion
3.83542 °/min
Orbital period
93.86 mins
BSTAR
0.00053658
Loading maneuver chart data...
Computing Atmospheric mass density...
Loading historical data...
Loading historical data...
Loading historical data...
Loading historical data...
Loading historical data...
Loading historical data...
Loading historical data...

Documentation

Showing up to 5 results
|